15min,AgWx,beryljct,423,11JUN2021:00:00:00,49.8,12.85,47.9,48.0,48.4,49.2,48.0,21,22,19,0.250,10.1,11.0,8.6,3.814,3.6,60,9.0,6.3,0.00020,0.00031,65.2,67.3,9,0,0,.,8.87,0.00,0.00
15min,AgWx,beryljct,423,11JUN2021:00:15:00,48.9,12.84,47.5,48.2,47.9,48.3,47.3,20,23,18,0.216,9.2,11.8,7.1,1.425,2.2,42,14,4.7,0.00002,0.00008,64.8,67.3,9,0,0,.,8.87,0.00,0.00
15min,AgWx,beryljct,423,11JUN2021:00:30:00,47.8,12.83,46.8,47.8,47.8,48.3,47.2,19,21,18,0.212,7.9,9.6,6.4,0.11,0.7,22,22,1.9,-0.00024,-0.00034,64.5,67.2,9,0,0,.,8.87,0.00,0.00
15min,AgWx,beryljct,423,11JUN2021:00:45:00,46.8,12.81,47.0,47.0,47.4,48.0,46.7,19,22,17,0.224,7.5,10.0,5.8,0.373,0.4,76,15,1.8,-0.00030,-0.00045,64.1,67.1,9,0,0,.,8.87,0.00,0.00
15min,AgWx,beryljct,423,11JUN2021:01:00:00,45.9,12.82,47.8,46.3,46.7,47.0,46.2,21,22,20,0.226,8.6,10.2,7.6,0.438,0.3,78,36,1.5,-0.00033,-0.00051,63.7,67.0,9,0,0,.,8.87,0.00,0.00
15min,AgWx,beryljct,423,11JUN2021:01:15:00,45.5,12.81,48.1,46.9,47.3,47.7,46.4,19,21,18,0.209,6.9,8.6,5.8,1.447,0.8,314,44,2.6,-0.00021,-0.00029,63.4,66.9,10,0,0,.,8.87,0.00,0.00
15min,AgWx,beryljct,423,11JUN2021:01:30:00,45.0,12.79,46.3,46.4,46.9,47.5,46.4,19,20,18,0.199,6.6,7.8,5.5,0,0.8,39,14,2.3,-0.00021,-0.00028,63.0,66.7,9,0,0,.,8.87,0.00,0.00
15min,AgWx,beryljct,423,11JUN2021:01:45:00,44.3,12.79,45.5,45.7,45.8,46.6,44.9,28,45,18,0.315,14.3,25.2,5.2,1.491,0.7,121,18,3.9,-0.00023,-0.00032,62.7,66.6,9,0,0,.,8.87,0.00,0.00
15min,AgWx,beryljct,423,11JUN2021:02:00:00,43.9,12.79,44.7,44.7,45.3,45.9,44.6,35,39,30,0.376,19.2,22.1,15.9,3.223,1.9,128,14,3.2,-0.00005,-0.00004,62.3,66.5,9,0,0,.,8.87,0.00,0.00
15min,AgWx,beryljct,423,11JUN2021:02:15:00,43.6,12.77,44.4,44.6,44.2,44.8,43.3,33,38,29,0.338,17.2,19.9,14.4,1.271,2.2,142,17,3.5,0.00000,0.00004,62.0,66.4,9,0,0,.,8.87,0.00,0.00
15min,AgWx,beryljct,423,11JUN2021:02:30:00,43.3,12.77,44.0,44.3,44.3,44.6,43.7,41,45,34,0.399,22.0,24.0,17.7,1.6,2.3,120,12,3.6,-0.00002,0.00001,61.6,66.3,9,0,0,.,8.87,0.00,0.00
15min,AgWx,beryljct,423,11JUN2021:02:45:00,42.9,12.75,43.4,43.9,42.9,44.2,41.9,43,53,36,0.412,21.7,26.0,17.1,1.798,1.8,126,19,3.6,-0.00008,-0.00008,61.3,66.1,9,0,0,.,8.88,0.00,0.00
15min,AgWx,beryljct,423,11JUN2021:03:00:00,42.6,12.75,43.8,44.6,44.1,44.9,43.5,38,48,26,0.299,20.1,25.1,11.9,4.231,3.1,108,16,6.0,0.00007,0.00012,61.0,66.0,9,0,0,.,8.87,0.00,0.00
15min,AgWx,beryljct,423,11JUN2021:03:15:00,42.7,12.74,42.5,43.2,43.4,44.6,42.9,28,32,27,0.254,12.5,15.0,11.2,5.086,4.8,84,6.3,6.5,0.00024,0.00033,60.6,65.9,9,0,0,.,8.88,0.00,0.00
15min,AgWx,beryljct,423,11JUN2021:03:30:00,42.2,12.71,42.2,41.9,42.3,43.2,41.2,39,52,27,0.432,18.4,26.1,11.5,2.368,1.6,61,11,4.4,-0.00008,-0.00009,60.4,65.8,9,0,0,.,8.88,0.00,0.00
15min,AgWx,beryljct,423,11JUN2021:03:45:00,41.7,12.72,43.9,43.7,42.6,43.9,41.6,39,47,31,0.363,19.3,23.4,13.2,2.17,1.3,74,13,3.3,-0.00013,-0.00016,60.1,65.6,9,0,0,.,8.87,0.00,0.00
15min,AgWx,beryljct,423,11JUN2021:04:00:00,41.6,12.71,44.2,44.0,44.1,44.3,43.8,38,42,35,0.360,20.2,22.6,17.8,3.661,2.9,78,4.8,3.7,0.00005,0.00010,59.8,65.5,9,0,0,.,8.88,0.00,0.00
15min,AgWx,beryljct,423,11JUN2021:04:15:00,41.5,12.7,43.1,43.0,43.7,44.1,42.9,38,46,32,0.412,19.6,23.4,15.7,1.14,1.9,67,7.6,3.6,-0.00005,-0.00004,59.4,65.3,9,0,0,.,8.88,0.00,0.00
15min,AgWx,beryljct,423,11JUN2021:04:30:00,40.9,12.69,44.0,43.5,43.1,43.5,42.6,34,47,21,0.201,15.4,24.0,6.1,0,0.2,71,1.4,1.3,0.00004,0.00007,59.0,65.2,9,0,0,.,8.88,0.00,0.00
15min,AgWx,beryljct,423,11JUN2021:04:45:00,40.2,12.68,43.5,42.8,43.0,43.6,42.5,35,44,21,0.331,16.7,22.2,5.9,1.293,0.6,56,7.1,2.0,0.00009,0.00016,58.7,65.1,9,0,0,.,8.88,0.00,0.00
15min,AgWx,beryljct,423,11JUN2021:05:00:00,39.7,12.68,42.3,42.2,42.5,42.9,42.2,37,45,25,0.269,18.0,23.0,8.9,1.359,1.1,50,18,2.2,0.00016,0.00027,58.3,64.9,9,1,0,.,8.88,0.00,0.00
15min,AgWx,beryljct,423,11JUN2021:05:15:00,39.4,12.66,39.7,39.3,40.7,42.2,39.3,26,30,23,0.208,8.2,12.5,6.0,0.438,1.5,17,19,3.2,0.00026,0.00045,57.9,64.8,10,4,0,.,8.89,0.00,0.00
15min,AgWx,beryljct,423,11JUN2021:05:30:00,39.0,12.68,41.7,40.7,40.1,40.8,39.3,22,25,21,0.187,4.6,6.8,3.4,2.214,0.4,354,18,2.2,0.00017,0.00023,57.5,64.6,9,20,0,.,8.88,0.00,0.00
15min,AgWx,beryljct,423,11JUN2021:05:45:00,39.2,12.71,41.3,40.7,40.3,41.2,37.9,23,34,21,0.182,5.1,11.9,3.7,2.083,2.3,324,9.9,3.0,0.00061,0.00089,57.1,64.5,9,54,0,.,8.88,0.00,0.00
15min,AgWx,beryljct,423,11JUN2021:06:00:00,39.8,12.71,41.6,41.2,41.0,41.3,40.5,21,23,20,0.178,4.4,5.9,3.4,2.653,2.2,329,5.7,3.0,0.00072,0.00101,56.8,64.3,10,91,0,.,8.89,0.00,0.00
15min,AgWx,beryljct,423,11JUN2021:06:15:00,41.1,12.7,41.4,41.4,40.9,41.4,40.4,25,30,20,0.260,7.4,12.2,3.5,0.197,1.2,332,16,2.5,0.00073,0.00092,56.4,64.2,9,132,0,.,8.88,0.00,0.00
15min,AgWx,beryljct,423,11JUN2021:06:30:00,43.0,12.7,43.6,43.5,42.4,43.5,41.4,29,34,24,0.257,12.4,16.5,8.0,0.044,0.1,17,7.8,0.8,0.00076,0.00082,56.1,64.0,9,175,0,.,8.88,0.00,0.00
15min,AgWx,beryljct,423,11JUN2021:06:45:00,45.2,12.75,45.1,44.7,43.8,44.8,43.1,33,40,27,0.353,16.4,21.5,11.7,0.789,1.1,71,22,2.8,0.00111,0.00130,55.8,63.8,9,223,0,.,8.88,0.00,0.00
15min,AgWx,beryljct,423,11JUN2021:07:00:00,47.4,12.76,46.8,46.8,45.9,46.8,44.8,31,36,26,0.341,16.7,19.8,13.9,4.012,3.2,65,10,6.3,0.00157,0.00200,55.5,63.7,9,271,0,.,8.88,0.00,0.00
15min,AgWx,beryljct,423,11JUN2021:07:15:00,49.4,12.81,49.1,48.9,47.9,48.9,46.8,31,37,26,0.366,18.9,22.6,15.1,4.275,4.4,72,12,7.2,0.00195,0.00252,55.3,63.5,9,322,0,.,8.87,0.00,0.00
15min,AgWx,beryljct,423,11JUN2021:07:30:00,51.4,12.84,50.9,50.9,49.9,50.9,48.9,32,39,25,0.417,20.9,26.7,14.9,8.18,5.1,76,13,8.4,0.00229,0.00295,55.1,63.3,9,371,0,.,8.88,0.00,0.00
15min,AgWx,beryljct,423,11JUN2021:07:45:00,53.2,12.93,52.0,52.0,51.4,52.1,50.8,30,35,27,0.369,21.2,24.4,18.8,3.946,6.2,61,12,9.1,0.00267,0.00349,54.9,63.1,10,421,0,.,8.87,0.00,0.00
15min,AgWx,beryljct,423,11JUN2021:08:00:00,54.9,13.1,52.9,53.3,52.6,53.3,52.0,30,36,25,0.407,22.0,26.8,17.5,7.738,5.3,60,16,8.1,0.00288,0.00364,54.8,63.0,9,471,0,.,8.87,0.00,0.00
15min,AgWx,beryljct,423,11JUN2021:08:15:00,56.6,13.37,55.2,54.9,53.8,54.9,53.0,28,33,24,0.470,21.7,25.8,17.4,3.771,5.6,53,16,9.0,0.00322,0.00406,54.8,62.8,9,520,0,.,8.87,0.00,0.00
15min,AgWx,beryljct,423,11JUN2021:08:30:00,58.2,13.62,56.5,56.4,55.7,56.8,55.0,28,33,24,0.426,23.0,26.2,18.8,8.66,7.7,40,20,13.0,0.00367,0.00475,54.8,62.7,9,566,0,.,8.87,0.00,0.00
15min,AgWx,beryljct,423,11JUN2021:08:45:00,59.3,14.29,57.4,57.6,56.8,57.6,56.3,28,31,22,0.441,24.1,26.6,18.9,7.453,9.9,30,16,14.2,0.00406,0.00537,54.8,62.5,9,606,0,.,8.87,0.00,0.00
15min,AgWx,beryljct,423,11JUN2021:09:00:00,60.4,14.29,57.7,57.9,57.9,58.6,57.4,30,36,25,0.471,26.2,31.0,21.9,13.11,10.3,46,16,16.6,0.00433,0.00568,55.0,62.3,9,653,0,.,8.87,0.00,0.00
15min,AgWx,beryljct,423,11JUN2021:09:15:00,61.4,14.27,59.4,58.8,58.3,59.0,57.7,28,31,23,0.403,25.4,27.9,21.4,11.38,10.7,38,17,14.4,0.00462,0.00605,55.2,62.2,9,697,0,.,8.87,0.00,0.00
15min,AgWx,beryljct,423,11JUN2021:09:30:00,62.4,14.22,59.4,60.0,59.2,60.6,58.7,27,32,21,0.539,25.6,30.6,19.9,7.585,9.0,45,17,13.4,0.00484,0.00618,55.4,62.1,9,744,0,.,8.86,0.00,0.00
15min,AgWx,beryljct,423,11JUN2021:09:45:00,63.8,14.21,59.8,60.6,60.0,60.7,59.4,28,33,24,0.498,26.4,31.1,22.6,7.037,7.4,54,19,12.2,0.00502,0.00623,55.7,61.9,9,783,0,.,8.86,0.00,0.00
15min,AgWx,beryljct,423,11JUN2021:10:00:00,65.0,14.17,60.4,61.0,61.4,62.2,60.5,25,32,20,0.422,25.1,31.1,20.0,4.275,6.5,39,28,10.0,0.00530,0.00649,56.1,61.8,9,819,0,.,8.86,0.00,0.00
15min,AgWx,beryljct,423,11JUN2021:10:15:00,66.3,14.18,62.8,62.2,62.0,62.7,60.9,26,31,21,0.426,26.5,31.7,21.1,4.472,5.9,47,25,12.6,0.00548,0.00661,56.5,61.7,9,852,0,.,8.86,0.00,0.00
15min,AgWx,beryljct,423,11JUN2021:10:30:00,67.5,14.15,62.9,63.4,62.8,63.8,62.0,23,30,19,0.457,24.1,31.4,19.7,8.11,5.1,48,29,9.4,0.00570,0.00680,57.1,61.6,9,887,0,.,8.86,0.00,0.00
15min,AgWx,beryljct,423,11JUN2021:10:45:00,68.8,14.11,64.4,64.2,64.0,64.9,62.9,20,29,15,0.450,22.3,31.4,16.0,6.248,4.3,25,53,10.4,0.00594,0.00699,57.7,61.5,9,918,0,.,8.85,0.00,0.00
15min,AgWx,beryljct,423,11JUN2021:11:00:00,69.8,13.72,65.5,65.1,64.8,65.7,63.8,19,26,15,0.498,21.6,29.8,16.0,4.121,4.8,41,44,8.2,0.00619,0.00734,58.4,61.4,9,947,0,.,8.85,0.00,0.00
15min,AgWx,beryljct,423,11JUN2021:11:15:00,71.0,13.67,65.4,67.0,65.6,67.0,64.9,20,26,15,0.357,23.4,30.2,16.9,1.162,2.7,108,24,6.1,0.00623,0.00709,59.1,61.4,9,970,0,.,8.85,0.00,0.00
15min,AgWx,beryljct,423,11JUN2021:11:30:00,72.1,13.63,66.4,66.6,66.5,67.0,66.0,20,27,15,0.361,24.3,31.9,16.9,1.052,3.6,121,25,6.9,0.00647,0.00747,59.9,61.3,9,991,0,.,8.85,0.00,0.00
15min,AgWx,beryljct,423,11JUN2021:11:45:00,72.9,13.63,67.6,67.6,67.3,68.2,66.7,21,27,16,0.366,25.4,32.2,19.7,3.354,3.2,125,27,5.7,0.00659,0.00755,60.7,61.3,9,1008,0,.,8.84,0.00,0.00
15min,AgWx,beryljct,423,11JUN2021:12:00:00,73.9,13.69,68.6,69.2,68.3,69.8,67.6,17,22,12,0.350,21.6,27.9,15.3,1.271,2.3,131,34,4.9,0.00667,0.00752,61.1,61.3,9,1022,0,.,8.84,0.00,0.00
15min,AgWx,beryljct,423,11JUN2021:12:15:00,75.3,13.58,69.7,70.3,69.3,70.4,68.6,15,20,12,0.368,19.6,26.6,14.2,1.688,1.5,112,51,3.7,0.00667,0.00739,62.1,61.3,9,1029,0,.,8.84,0.00,0.00
15min,AgWx,beryljct,423,11JUN2021:12:30:00,76.6,13.54,72.1,72.3,70.7,72.6,69.1,14,19,11,0.379,19.7,27.9,14.7,2.894,2.0,133,69,4.2,0.00679,0.00762,61.9,61.3,9,1028,0,.,8.84,0.00,0.00
15min,AgWx,beryljct,423,11JUN2021:12:45:00,77.8,13.63,71.4,72.6,72.3,73.2,71.0,13,21,9.5,0.430,19.0,31.0,11.7,6.445,3.2,40,92,6.5,0.00706,0.00812,64.2,61.3,9,1035,0,.,8.84,0.00,0.00
15min,AgWx,beryljct,423,11JUN2021:13:00:00,78.7,13.54,72.8,72.6,72.5,73.3,72.1,18,26,11,0.392,25.5,36.2,15.6,3.836,3.4,95,31,5.8,0.00709,0.00817,64.5,61.4,9,1032,0,.,8.84,0.00,0.00
15min,AgWx,beryljct,423,11JUN2021:13:15:00,79.5,13.52,74.9,75.8,74.2,76.0,72.6,13,19,9.2,0.450,20.2,28.5,12.3,3.398,2.8,172,60,6.4,0.00707,0.00809,65.8,61.5,9,1025,0,.,8.84,0.00,0.00
15min,AgWx,beryljct,423,11JUN2021:13:30:00,80.3,13.47,73.6,73.8,74.6,75.8,73.8,14,21,8.9,0.300,20.9,33.2,11.8,3.617,3.2,66,54,7.2,0.00707,0.00816,66.8,61.6,9,1013,0,.,8.83,0.00,0.00
15min,AgWx,beryljct,423,11JUN2021:13:45:00,80.6,13.48,74.0,74.7,74.6,75.6,73.7,14,23,9.7,0.452,21.3,34.1,14.2,3.508,3.8,100,59,9.6,0.00705,0.00825,67.4,61.7,9,1000,0,.,8.83,0.00,0.00
15min,AgWx,beryljct,423,11JUN2021:14:00:00,80.8,13.45,77.7,76.5,75.8,77.2,74.6,13,23,7.8,0.301,20.6,34.7,10.5,0.68,3.5,73,72,9.2,0.00695,0.00811,68.1,61.8,9,981,0,.,8.84,0.00,0.00
15min,AgWx,beryljct,423,11JUN2021:14:15:00,81.3,13.39,76.3,76.4,76.9,78.5,76.0,10,17,7.5,0.514,16.7,27.8,10.0,2.631,3.9,15,73,9.6,0.00691,0.00815,68.8,62.0,9,960,0,.,8.84,0.00,0.00
15min,AgWx,beryljct,423,11JUN2021:14:30:00,82.4,13.4,76.2,76.6,76.7,77.0,76.4,19,26,9.4,0.672,30.8,39.8,14.5,4.932,3.2,100,30,6.4,0.00661,0.00764,69.8,62.1,9,932,0,.,8.83,0.00,0.00
15min,AgWx,beryljct,423,11JUN2021:14:45:00,83.2,13.35,77.2,77.2,76.9,77.5,76.6,16,26,11,0.628,26.4,39.7,18.1,2.828,4.0,51,17,6.1,0.00654,0.00774,70.2,62.3,9,903,0,.,8.83,0.00,0.00
15min,AgWx,beryljct,423,11JUN2021:15:00:00,84.1,13.29,77.6,77.7,77.5,77.9,77.2,17,23,12,0.414,29.6,36.9,20.6,3.354,4.2,75,18,8.2,0.00637,0.00758,70.9,62.5,9,872,0,.,8.83,0.00,0.00
15min,AgWx,beryljct,423,11JUN2021:15:15:00,84.9,13.38,78.5,78.7,78.2,78.7,77.6,18,29,10,0.345,30.1,43.1,18.1,4.823,4.1,63,25,6.4,0.00614,0.00732,71.5,62.7,9,838,0,.,8.83,0.00,0.00
15min,AgWx,beryljct,423,11JUN2021:15:30:00,85.9,13.31,79.0,79.9,79.5,80.4,78.7,12,23,8.4,0.538,22.1,37.9,14.3,2.762,3.7,345,66,6.8,0.00576,0.00692,72.0,62.9,9,784,0,.,8.83,0.00,0.00
15min,AgWx,beryljct,423,11JUN2021:15:45:00,86.3,13.33,80.2,81.1,80.5,81.4,79.8,12,18,6.3,0.293,22.2,32.5,8.7,11.51,6.8,208,32,12.6,0.00607,0.00781,72.0,63.1,10,744,0,.,8.84,0.00,0.00
15min,AgWx,beryljct,423,11JUN2021:16:00:00,85.9,13.34,79.6,79.2,79.9,81.1,78.8,12,18,7.3,0.496,22.1,31.8,12.0,13.31,10.5,168,23,22.1,0.00658,0.00894,72.4,63.3,9,731,0,.,8.84,0.00,0.00
15min,AgWx,beryljct,423,11JUN2021:16:15:00,85.2,13.39,81.9,81.3,80.5,81.3,79.4,12,17,7.3,0.417,23.3,31.3,12.2,9.8,8.1,203,25,16.4,0.00596,0.00793,72.7,63.6,9,690,0,.,8.84,0.00,0.00
15min,AgWx,beryljct,423,11JUN2021:16:30:00,85.2,13.35,82.1,80.8,80.7,81.9,79.7,11,16,6.0,0.479,20.7,29.3,7.9,4.45,6.8,200,30,15.4,0.00532,0.00706,72.8,63.8,9,627,0,.,8.84,0.00,0.00
15min,AgWx,beryljct,423,11JUN2021:16:45:00,84.8,13.36,80.8,80.3,80.1,80.9,79.2,13,21,6.6,0.506,23.5,36.2,9.3,4.954,7.6,200,16,12.2,0.00522,0.00703,72.9,64.0,10,601,0,.,8.84,0.00,0.00
15min,AgWx,beryljct,423,11JUN2021:17:00:00,84.4,13.39,79.6,80.1,80.2,80.9,79.2,10,16,6.2,0.267,18.6,30.1,8.0,10.63,9.1,195,21,15.4,0.00523,0.00733,72.9,64.3,9,554,0,.,8.84,0.00,0.00
15min,AgWx,beryljct,423,11JUN2021:17:15:00,83.9,13.41,79.1,79.4,79.9,80.5,79.2,10,16,5.7,0.452,18.2,29.9,6.0,7.234,8.6,193,12,13.3,0.00481,0.00680,72.9,64.5,9,507,0,.,8.84,0.00,0.00
15min,AgWx,beryljct,423,11JUN2021:17:30:00,83.3,13.39,78.7,79.4,79.3,79.8,78.9,10,14,6.6,0.299,18.1,26.0,8.5,9.45,8.9,205,14,13.7,0.00451,0.00652,72.9,64.7,9,457,0,.,8.84,0.00,0.00
15min,AgWx,beryljct,423,11JUN2021:17:45:00,82.7,13.32,77.1,78.2,78.5,79.5,77.8,12,16,7.3,0.470,20.6,28.4,11.1,5.985,7.9,210,13,12.8,0.00390,0.00569,73.1,64.9,9,402,0,.,8.84,0.00,0.00
15min,AgWx,beryljct,423,11JUN2021:18:00:00,81.9,13.17,76.9,77.5,78.1,78.7,77.2,11,16,7.4,0.425,19.5,27.4,10.8,7.804,7.8,214,10,12.3,0.00354,0.00527,72.8,65.1,10,356,0,.,8.85,0.00,0.00
15min,AgWx,beryljct,423,11JUN2021:18:15:00,81.2,13.13,77.5,77.6,77.2,77.8,76.5,12,16,8.9,0.372,20.1,27.1,14.2,7.168,8.2,215,11,12.7,0.00327,0.00502,72.6,65.3,9,306,0,.,8.84,0.00,0.00
15min,AgWx,beryljct,423,11JUN2021:18:30:00,80.3,13.09,78.4,76.7,76.5,77.6,75.8,12,15,9.7,0.311,20.8,25.4,15.5,10.98,7.6,217,12,11.5,0.00276,0.00435,72.4,65.5,10,256,0,.,8.85,0.00,0.00
15min,AgWx,beryljct,423,11JUN2021:18:45:00,79.4,13.08,74.9,76.0,76.1,77.0,75.2,11,15,9.2,0.319,18.3,25.1,14.0,8.33,8.3,213,8.1,11.2,0.00261,0.00433,72.1,65.7,9,207,0,.,8.85,0.00,0.00
15min,AgWx,beryljct,423,11JUN2021:19:00:00,78.4,13.04,75.8,75.2,75.0,75.9,74.4,12,13,9.6,0.287,18.3,21.3,14.0,8.37,7.9,216,8.6,10.4,0.00146,0.00195,71.7,65.9,9,161,0,.,8.85,0.00,0.00
15min,AgWx,beryljct,423,11JUN2021:19:15:00,77.4,13.03,72.9,74.3,74.7,75.4,73.9,11,13,9.1,0.333,16.3,20.0,12.5,6.796,7.4,207,6.2,9.8,0.00130,0.00177,71.3,66.0,9,118,0,.,8.85,0.00,0.00
15min,AgWx,beryljct,423,11JUN2021:19:30:00,76.0,13.04,71.6,71.6,73.1,74.1,71.6,12,14,10,0.356,17.3,19.7,14.3,6.664,6.8,209,5.8,9.1,0.00108,0.00149,70.7,66.1,9,77,0,.,8.85,0.00,0.00
15min,AgWx,beryljct,423,11JUN2021:19:45:00,74.2,13.02,70.6,70.8,71.2,71.6,70.8,12,13,11,0.300,16.2,18.5,14.2,7.081,6.7,211,5.9,9.1,0.00095,0.00132,70.4,66.3,9,43,93,.,8.85,0.01,0.00
15min,AgWx,beryljct,423,11JUN2021:20:00:00,72.3,12.99,68.8,69.1,70.1,70.8,69.0,12,13,11,0.277,14.7,16.4,12.9,5.656,6.4,206,4.7,8.1,0.00082,0.00115,69.9,66.3,9,9,100,.,8.85,0.00,0.00
15min,AgWx,beryljct,423,11JUN2021:20:15:00,70.3,12.98,67.8,68.0,68.6,69.3,67.7,12,12,11,0.270,13.2,14.3,11.8,6.62,6.4,207,5.7,7.6,0.00077,0.00108,69.4,66.4,9,2,0,.,8.85,0.00,0.00
15min,AgWx,beryljct,423,11JUN2021:20:30:00,68.7,12.97,66.6,67.0,67.5,68.0,66.9,12,13,11,0.288,13.1,14.2,12.0,5.963,6.4,207,2.7,7.7,0.00076,0.00106,68.9,66.5,9,0,0,.,8.86,0.00,0.00
15min,AgWx,beryljct,423,11JUN2021:20:45:00,67.4,12.97,67.6,67.0,66.7,67.1,66.4,12,13,12,0.274,13.4,14.2,12.1,6.883,6.4,205,3.5,7.4,0.00074,0.00103,68.4,66.5,9,0,0,.,8.86,0.00,0.00
15min,AgWx,beryljct,423,11JUN2021:21:00:00,66.6,12.96,66.3,66.6,66.9,67.3,66.4,12,13,11,0.285,13.1,14.6,11.4,5.437,6.0,206,3.8,7.3,0.00070,0.00099,67.9,66.6,9,0,0,.,8.86,0.00,0.00
15min,AgWx,beryljct,423,11JUN2021:21:15:00,65.6,12.95,63.6,64.7,65.4,66.6,63.4,13,17,10,0.271,13.9,18.6,8.2,5.809,5.8,189,24,7.2,0.00064,0.00091,67.5,66.6,9,0,0,.,8.86,0.00,0.00
15min,AgWx,beryljct,423,11JUN2021:21:30:00,64.5,12.95,65.0,65.0,64.3,65.5,61.5,12,19,9.6,0.210,10.9,18.7,6.6,6.445,6.2,170,7.8,7.7,0.00068,0.00095,66.9,66.6,9,0,0,.,8.86,0.00,0.00
15min,AgWx,beryljct,423,11JUN2021:21:45:00,63.3,12.93,54.7,57.3,61.3,65.0,57.3,14,20,10,0.300,10.5,17.8,5.8,5.634,6.0,169,15,7.3,0.00061,0.00086,66.6,66.6,9,0,0,.,8.86,0.00,0.00
15min,AgWx,beryljct,423,11JUN2021:22:00:00,60.9,12.93,51.7,52.2,52.5,57.0,51.7,31,35,20,0.431,23.0,24.6,16.8,6.226,5.7,154,5.6,6.7,0.00035,0.00049,66.2,66.6,9,0,0,.,8.86,0.00,0.00
15min,AgWx,beryljct,423,11JUN2021:22:15:00,58.6,12.92,50.3,53.5,53.1,54.4,52.0,29,33,25,0.421,21.7,23.9,18.9,4.801,6.4,150,2.4,7.3,0.00043,0.00057,65.8,66.6,9,0,0,.,8.86,0.00,0.00
15min,AgWx,beryljct,423,11JUN2021:22:30:00,56.6,12.92,47.9,49.8,50.4,53.3,48.7,35,43,31,0.461,23.9,27.9,21.4,2.762,1.1,288,47,4.6,-0.00017,-0.00021,65.4,66.5,9,0,0,.,8.87,0.00,0.00
15min,AgWx,beryljct,423,11JUN2021:22:45:00,54.8,12.91,47.7,46.6,47.5,49.5,46.0,41,45,37,0.424,25.1,26.5,23.1,2.368,2.8,195,9.3,3.7,0.00003,0.00008,64.9,66.5,9,0,0,.,8.86,0.00,0.00
15min,AgWx,beryljct,423,11JUN2021:23:00:00,53.6,12.9,51.2,51.5,50.0,51.9,46.7,27,39,21,0.288,17.1,23.2,13.2,5.963,5.6,183,7.9,7.5,0.00035,0.00049,64.5,66.4,10,0,0,.,8.87,0.00,0.00
15min,AgWx,beryljct,423,11JUN2021:23:15:00,53.4,12.88,54.4,53.6,52.6,54.6,50.4,20,26,16,0.259,12.2,16.6,9.4,6.511,6.3,181,6.9,7.2,0.00048,0.00065,64.1,66.4,9,0,0,.,8.87,0.00,0.00
15min,AgWx,beryljct,423,11JUN2021:23:30:00,53.5,12.87,47.8,48.8,52.9,54.1,48.8,24,35,19,0.406,16.4,22.2,12.0,1.359,4.5,171,16,6.9,0.00032,0.00046,63.7,66.3,9,0,0,.,8.86,0.00,0.00
15min,AgWx,beryljct,423,11JUN2021:23:45:00,52.8,12.88,52.4,52.0,49.6,52.0,47.4,28,37,17,0.232,16.9,22.9,7.6,1.732,1.8,255,19,3.2,-0.00004,-0.00002,63.3,66.2,9,0,0,.,8.87,0.00,0.00
15min,AgWx,bigpiney,439,11JUN2021:00:00:00,40.4,12.63,36.7,36.2,36.4,36.9,35.7,62,64,60,0.456,24.5,25.0,24.1,7.541,6.4,21,24,9.0,0.00016,0.00021,51.4,48.4,42,0,0,0.0,1.99,0.00,0.00
15min,AgWx,bigpiney,439,11JUN2021:00:15:00,40.0,12.62,35.9,36.2,36.3,36.6,35.8,63,64,62,0.454,24.9,25.1,24.7,5.941,8.1,338,16,11.8,0.00018,0.00023,51.3,48.3,42,0,0,0.0,1.99,0.00,0.00
15min,AgWx,bigpiney,439,11JUN2021:00:30:00,39.6,12.61,34.8,35.2,36.0,37.4,35.1,63,66,60,0.453,24.8,25.2,24.6,7.037,7.5,347,19,13.2,0.00017,0.00021,51.2,48.3,42,0,0,0.0,1.99,0.00,0.00
15min,AgWx,bigpiney,439,11JUN2021:00:45:00,39.2,12.6,34.0,33.6,34.3,35.2,33.5,68,70,65,0.458,24.8,25.0,24.5,5.371,6.2,347,16,8.5,0.00012,0.00015,51.0,48.3,42,0,0,0.0,1.99,0.00,0.00
15min,AgWx,bigpiney,439,11JUN2021:01:00:00,38.5,12.6,34.2,33.1,33.0,34.1,31.4,72,78,69,0.477,25.0,26.0,23.7,7.059,5.0,75,65,11.5,0.00007,0.00010,50.9,48.3,42,0,0,0.0,1.99,0.00,0.00
15min,AgWx,bigpiney,439,11JUN2021:01:15:00,37.9,12.59,35.0,35.0,34.1,35.3,33.3,70,74,67,0.461,25.3,25.9,24.9,4.406,2.8,187,88,7.2,0.00003,0.00005,50.8,48.3,42,0,0,0.0,1.99,0.00,0.00
15min,AgWx,bigpiney,439,11JUN2021:01:30:00,37.2,12.58,33.9,33.4,34.0,35.2,33.0,70,72,67,0.461,25.1,25.6,24.7,5.919,4.9,326,11,6.8,0.00008,0.00011,50.7,48.3,42,0,0,0.0,1.99,0.00,0.00
15min,AgWx,bigpiney,439,11JUN2021:01:45:00,36.6,12.56,32.4,32.0,32.7,33.6,32.0,73,74,71,0.449,24.8,25.3,24.4,5.787,5.3,291,22,7.5,0.00007,0.00010,50.6,48.3,42,0,0,0.0,1.99,0.00,0.00
15min,AgWx,bigpiney,439,11JUN2021:02:00:00,36.0,12.55,30.6,31.4,32.1,32.7,31.4,73,74,72,0.444,24.4,24.8,23.7,3.639,3.3,233,55,6.1,0.00003,0.00005,50.5,48.2,42,0,0,0.0,1.99,0.00,0.00
15min,AgWx,bigpiney,439,11JUN2021:02:15:00,35.4,12.54,28.4,27.9,29.3,31.4,27.9,80,82,74,0.420,23.8,25.0,22.9,5.459,5.3,187,23,7.4,0.00004,0.00005,50.4,48.2,42,0,0,0.0,1.99,0.00,0.00
15min,AgWx,bigpiney,439,11JUN2021:02:30:00,34.5,12.53,27.3,27.0,27.3,28.1,26.5,82,84,81,0.415,22.6,23.1,22.0,4.954,4.5,189,22,5.9,0.00002,0.00003,50.3,48.2,42,0,0,0.0,1.99,0.00,0.00
15min,AgWx,bigpiney,439,11JUN2021:02:45:00,33.5,12.52,26.0,26.3,26.5,27.0,26.1,83,83,83,0.401,22.0,22.7,21.6,3.486,5.4,229,15,7.4,0.00002,0.00003,50.2,48.2,42,0,0,0.0,1.99,0.00,0.00
15min,AgWx,bigpiney,439,11JUN2021:03:00:00,32.6,12.5,26.0,26.1,26.1,26.6,25.7,83,84,82,0.394,21.7,22.0,21.4,6.072,3.1,231,13,6.1,-0.00001,-0.00000,50.1,48.1,42,0,0,0.0,1.99,0.00,0.00
15min,AgWx,bigpiney,439,11JUN2021:03:15:00,31.8,12.48,27.7,26.7,25.4,26.7,24.6,83,84,81,0.400,20.9,21.8,20.0,3.266,4.0,248,15,6.2,0.00001,0.00002,50.0,48.1,42,0,0,0.0,1.99,0.00,0.00
15min,AgWx,bigpiney,439,11JUN2021:03:30:00,30.9,12.48,27.3,27.0,27.1,27.6,26.6,79,81,77,0.392,21.4,21.8,21.0,4.384,3.2,242,18,4.9,0.00001,0.00002,49.9,48.1,42,0,0,0.0,1.99,0.00,0.00
15min,AgWx,bigpiney,439,11JUN2021:03:45:00,30.4,12.46,27.2,26.9,26.3,27.0,25.8,81,83,79,0.392,21.2,21.6,20.7,5.809,4.9,211,16,6.3,0.00003,0.00004,49.7,48.0,42,0,0,0.0,1.99,0.00,0.00
15min,AgWx,bigpiney,439,11JUN2021:04:00:00,30.1,12.45,25.5,25.2,26.1,26.9,25.2,80,81,79,0.372,20.7,21.3,20.0,4.757,5.2,231,7.4,6.1,0.00003,0.00005,49.6,48.0,42,0,0,0.0,1.99,0.00,0.00
15min,AgWx,bigpiney,439,11JUN2021:04:15:00,29.7,12.44,26.7,26.9,25.6,27.0,24.9,80,82,76,0.377,20.3,20.8,19.8,3.354,4.6,260,11,6.2,0.00002,0.00004,49.5,48.0,42,0,0,0.0,1.99,0.00,0.00
15min,AgWx,bigpiney,439,11JUN2021:04:30:00,29.5,12.43,27.8,27.5,26.3,27.5,25.6,78,80,76,0.393,20.5,21.4,19.9,5.393,5.0,250,13,8.0,0.00004,0.00005,49.4,48.0,42,1,0,0.0,1.99,0.00,0.00
15min,AgWx,bigpiney,439,11JUN2021:04:45:00,29.4,12.41,26.4,26.3,27.5,28.2,26.3,76,78,75,0.375,20.9,21.4,20.1,5.239,5.2,239,10,7.7,0.00005,0.00007,49.3,47.9,42,4,0,0.0,1.99,0.00,0.00
15min,AgWx,bigpiney,439,11JUN2021:05:00:00,29.4,12.44,27.1,25.6,25.9,26.3,25.4,79,80,78,0.375,20.2,20.4,19.8,4.121,4.3,248,23,5.9,-0.00015,-0.00008,49.2,47.8,42,19,0,0.0,1.99,0.00,0.00
15min,AgWx,bigpiney,439,11JUN2021:05:15:00,29.5,12.45,26.7,25.9,26.3,27.5,25.2,79,81,76,0.378,20.5,21.6,19.5,2.368,2.5,143,82,6.8,-0.00011,-0.00007,49.1,47.8,42,47,0,0.0,1.99,0.00,0.00
15min,AgWx,bigpiney,439,11JUN2021:05:30:00,29.7,12.48,26.9,26.6,26.6,27.1,25.9,80,83,78,0.404,21.2,22.0,20.4,3.771,3.1,183,24,5.1,0.00001,0.00006,49.0,47.7,42,78,0,0.0,1.99,0.00,0.00
15min,AgWx,bigpiney,439,11JUN2021:05:45:00,30.3,12.49,29.4,29.0,28.0,29.7,26.6,79,83,73,0.412,22.2,22.4,21.9,1.293,0.9,224,24,4.2,0.00007,0.00010,48.9,47.7,42,111,0,0.0,1.99,0.00,0.00
15min,AgWx,bigpiney,439,11JUN2021:06:00:00,31.5,12.51,31.1,30.5,29.9,30.5,29.0,76,78,73,0.430,23.4,24.0,22.2,2.631,1.6,154,18,2.9,0.00026,0.00032,48.8,47.7,42,149,0,0.0,1.99,0.00,0.00
15min,AgWx,bigpiney,439,11JUN2021:06:15:00,33.0,12.53,33.6,33.3,31.7,33.3,30.6,75,77,73,0.472,24.7,25.7,23.6,2.587,2.3,163,7.6,3.5,0.00046,0.00056,48.7,47.6,42,192,0,0.0,1.99,0.00,0.00
15min,AgWx,bigpiney,439,11JUN2021:06:30:00,35.0,12.55,35.2,34.8,34.3,34.9,33.3,69,73,66,0.448,25.2,26.2,24.4,0.965,1.1,205,36,3.4,0.00069,0.00078,48.6,47.7,42,240,0,0.0,1.99,0.00,0.00
15min,AgWx,bigpiney,439,11JUN2021:06:45:00,37.3,12.62,37.9,37.6,36.4,37.6,34.9,64,66,62,0.489,25.5,27.1,24.5,3.047,1.0,209,39,3.0,0.00094,0.00105,48.5,47.6,42,288,0,0.0,1.99,0.00,0.00
15min,AgWx,bigpiney,439,11JUN2021:07:00:00,39.6,12.69,40.0,39.9,38.7,40.2,37.3,61,64,59,0.489,26.5,27.6,25.8,2.543,2.3,197,22,4.5,0.00124,0.00144,48.4,47.5,42,333,0,0.0,1.99,0.00,0.00
15min,AgWx,bigpiney,439,11JUN2021:07:15:00,41.9,12.76,41.3,40.6,40.2,41.2,39.4,55,58,52,0.459,25.2,26.7,24.2,4.647,3.4,187,18,6.1,0.00157,0.00186,48.3,47.4,42,387,0,0.0,1.99,0.00,0.00
15min,AgWx,bigpiney,439,11JUN2021:07:30:00,43.9,13.01,42.9,42.2,41.1,42.2,40.6,53,54,51,0.496,25.2,26.9,24.4,1.206,2.4,157,29,5.7,0.00182,0.00209,48.1,47.5,42,435,0,0.0,1.99,0.00,0.00
15min,AgWx,bigpiney,439,11JUN2021:07:45:00,45.5,13.46,41.7,42.9,42.5,43.1,41.7,51,54,49,0.482,25.6,27.6,24.4,4.121,4.5,153,28,8.8,0.00213,0.00254,48.1,47.5,42,483,0,0.0,1.99,0.00,0.00
15min,AgWx,bigpiney,439,11JUN2021:08:00:00,46.7,13.77,44.5,44.0,43.2,44.4,42.4,50,52,47,0.483,25.6,27.9,24.2,1.6,4.0,160,18,7.2,0.00240,0.00282,48.0,47.4,42,533,0,0.0,1.99,0.00,0.00
15min,AgWx,bigpiney,439,11JUN2021:08:15:00,48.0,14.13,44.9,45.4,44.5,46.1,43.7,48,51,46,0.492,26.3,29.2,24.3,3.705,3.4,166,24,5.9,0.00268,0.00309,47.9,47.3,42,579,0,0.0,1.99,0.00,0.00
15min,AgWx,bigpiney,439,11JUN2021:08:30:00,49.5,14.58,44.2,45.1,45.4,46.2,44.6,46,51,41,0.433,25.6,29.1,22.8,3.047,3.9,162,24,8.1,0.00296,0.00344,47.8,47.3,42,623,0,0.0,1.99,0.00,0.00